AVA9347 SKSP-SKRG

Flight info

Callsign AVA9347
Flight time 1h 23m
Altitude 37000
Route BODED2B BODED DCT VUNIB UP530 KAKOL B689 OPMEL OPMEL4A
Aircraft A320/M-SDE3FGHIRWY/LB1

Departure

Time 2026-05-09 14:32
Airport Gustavo Rojas Pinilla International Airport (SKSP)

Arrival

Time 2026-05-09 15:55
Airport Jose Maria Córdova International Airport (SKRG)
Time Latitude Longitude Altitude Speed Heading
2026-05-09 13:42 12.58671 -81.70269 33 ft 0 kts 148°
2026-05-09 14:16 12.58673 -81.70270 32 ft 3 kts 149°
2026-05-09 14:16 12.58694 -81.70283 32 ft 3 kts 150°
2026-05-09 14:16 12.58711 -81.70292 31 ft 3 kts 152°
2026-05-09 14:17 12.58726 -81.70298 32 ft 3 kts 219°
2026-05-09 14:17 12.58739 -81.70282 31 ft 3 kts 238°
2026-05-09 14:17 12.58751 -81.70261 29 ft 3 kts 238°
2026-05-09 14:17 12.58759 -81.70248 29 ft 1 kts 238°
2026-05-09 14:22 12.58757 -81.70252 29 ft 3 kts 238°
2026-05-09 14:23 12.58735 -81.70289 31 ft 8 kts 239°
2026-05-09 14:23 12.58711 -81.70330 33 ft 4 kts 239°
2026-05-09 14:23 12.58706 -81.70367 34 ft 8 kts 288°
2026-05-09 14:23 12.58734 -81.70449 34 ft 15 kts 276°
2026-05-09 14:24 12.58700 -81.70533 35 ft 12 kts 239°
2026-05-09 14:24 12.58649 -81.70625 41 ft 19 kts 239°
2026-05-09 14:24 12.58576 -81.70750 44 ft 18 kts 238°
2026-05-09 14:24 12.58519 -81.70848 50 ft 14 kts 239°
2026-05-09 14:25 12.58474 -81.70924 52 ft 11 kts 239°
2026-05-09 14:25 12.58444 -81.70977 53 ft 7 kts 239°
2026-05-09 14:25 12.58418 -81.71021 50 ft 12 kts 239°
2026-05-09 14:25 12.58354 -81.71136 55 ft 23 kts 239°
2026-05-09 14:26 12.58276 -81.71268 60 ft 20 kts 240°
2026-05-09 14:26 12.58210 -81.71381 57 ft 17 kts 239°
2026-05-09 14:26 12.58155 -81.71477 56 ft 15 kts 239°
2026-05-09 14:26 12.58109 -81.71558 63 ft 11 kts 239°
2026-05-09 14:27 12.58075 -81.71618 68 ft 9 kts 239°
2026-05-09 14:27 12.58029 -81.71697 65 ft 13 kts 239°
2026-05-09 14:27 12.57986 -81.71772 69 ft 11 kts 239°
2026-05-09 14:27 12.57954 -81.71827 76 ft 8 kts 239°
2026-05-09 14:28 12.57929 -81.71872 69 ft 7 kts 239°
2026-05-09 14:28 12.57906 -81.71910 79 ft 8 kts 238°
2026-05-09 14:28 12.57871 -81.71967 84 ft 8 kts 233°
2026-05-09 14:28 12.57830 -81.71994 82 ft 8 kts 214°
2026-05-09 14:29 12.57837 -81.72024 85 ft 3 kts
2026-05-09 14:29 12.57857 -81.71994 82 ft 4 kts 59°
2026-05-09 14:29 12.57859 -81.71991 82 ft 2 kts 59°
2026-05-09 14:29 12.57864 -81.71983 81 ft 0 kts 59°
2026-05-09 14:31 12.57888 -81.71942 83 ft 29 kts 59°
2026-05-09 14:31 12.58125 -81.71528 65 ft 101 kts 59°
2026-05-09 14:31 12.58586 -81.70727 50 ft 156 kts 60°
2026-05-09 14:31 12.59174 -81.69725 593 ft 165 kts 60°
2026-05-09 14:32 12.59803 -81.68750 1354 ft 163 kts 56°
2026-05-09 14:32 12.60376 -81.67770 2073 ft 160 kts 67°
2026-05-09 14:32 12.60740 -81.66709 2802 ft 157 kts 79°
2026-05-09 14:32 12.60877 -81.65606 3410 ft 159 kts 89°
2026-05-09 14:33 12.60766 -81.64406 3720 ft 180 kts 100°
2026-05-09 14:33 12.60322 -81.63121 3967 ft 206 kts 114°
2026-05-09 14:33 12.59464 -81.61857 4238 ft 233 kts 130°
2026-05-09 14:33 12.58114 -81.60786 4634 ft 260 kts 149°
2026-05-09 14:34 12.56373 -81.60111 5346 ft 271 kts 158°
2026-05-09 14:34 12.54562 -81.59499 6211 ft 276 kts 158°
2026-05-09 14:34 12.52730 -81.58864 6994 ft 279 kts 157°
2026-05-09 14:34 12.50904 -81.58220 7775 ft 282 kts 157°
2026-05-09 14:35 12.49032 -81.57562 8537 ft 287 kts 158°
2026-05-09 14:35 12.47129 -81.56892 9281 ft 291 kts 155°
2026-05-09 14:35 12.45319 -81.55975 10022 ft 291 kts 143°
2026-05-09 14:35 12.43758 -81.54685 10750 ft 290 kts 131°
2026-05-09 14:36 12.42345 -81.53146 11130 ft 307 kts 130°
2026-05-09 14:36 12.40831 -81.51481 11283 ft 331 kts 130°
2026-05-09 14:36 12.39222 -81.49713 11600 ft 345 kts 130°
2026-05-09 14:36 12.37568 -81.47907 12178 ft 350 kts 131°
2026-05-09 14:37 12.35890 -81.46085 12785 ft 354 kts 131°
2026-05-09 14:37 12.34188 -81.44242 13413 ft 357 kts 131°
2026-05-09 14:37 12.32477 -81.42383 14037 ft 360 kts 131°
2026-05-09 14:37 12.30771 -81.40531 14621 ft 362 kts 131°
2026-05-09 14:38 12.29026 -81.38635 15159 ft 366 kts 131°
2026-05-09 14:38 12.27273 -81.36726 15688 ft 369 kts 131°
2026-05-09 14:38 12.25512 -81.34804 16216 ft 373 kts 131°
2026-05-09 14:38 12.23725 -81.32856 16729 ft 376 kts 131°
2026-05-09 14:39 12.21927 -81.30901 17224 ft 379 kts 131°
2026-05-09 14:39 12.20115 -81.28925 17723 ft 382 kts 132°
2026-05-09 14:39 12.18314 -81.26965 18172 ft 385 kts 131°
2026-05-09 14:39 12.16471 -81.24960 18609 ft 387 kts 131°
2026-05-09 14:40 12.14616 -81.22944 19009 ft 389 kts 131°
2026-05-09 14:40 12.12747 -81.20909 19396 ft 392 kts 132°
2026-05-09 14:40 12.10891 -81.18890 19772 ft 395 kts 132°
2026-05-09 14:40 12.08995 -81.16827 20161 ft 398 kts 131°
2026-05-09 14:41 12.07096 -81.14757 20598 ft 400 kts 131°
2026-05-09 14:41 12.05177 -81.12669 20986 ft 403 kts 131°
2026-05-09 14:41 12.03274 -81.10606 21408 ft 405 kts 131°
2026-05-09 14:41 12.01335 -81.08508 21810 ft 407 kts 131°
2026-05-09 14:42 11.99385 -81.06396 22195 ft 409 kts 131°
2026-05-09 14:42 11.98084 -81.04983 22463 ft 411 kts 131°
2026-05-09 14:42 11.95475 -81.02147 22964 ft 414 kts 131°
2026-05-09 14:42 11.93492 -80.99991 23270 ft 418 kts 131°
2026-05-09 14:43 11.92159 -80.98543 23504 ft 421 kts 131°
2026-05-09 14:43 11.90145 -80.96356 23820 ft 423 kts 131°
2026-05-09 14:43 11.88111 -80.94149 24145 ft 426 kts 131°
2026-05-09 14:43 11.86075 -80.91943 24464 ft 428 kts 131°
2026-05-09 14:44 11.84034 -80.89736 24839 ft 428 kts 131°
2026-05-09 14:44 11.81985 -80.87518 25152 ft 429 kts 131°
2026-05-09 14:44 11.79953 -80.85316 25475 ft 432 kts 132°
2026-05-09 14:44 11.77888 -80.83074 25729 ft 434 kts 132°
2026-05-09 14:45 11.75798 -80.80816 26008 ft 437 kts 132°
2026-05-09 14:45 11.73699 -80.78562 26301 ft 439 kts 132°
2026-05-09 14:45 11.71611 -80.76330 26589 ft 441 kts 132°
2026-05-09 14:45 11.69485 -80.74061 26898 ft 443 kts 132°
2026-05-09 14:46 11.67347 -80.71785 27252 ft 443 kts 132°
2026-05-09 14:46 11.65206 -80.69508 27536 ft 446 kts 132°
2026-05-09 14:46 11.63042 -80.67208 27783 ft 449 kts 132°
2026-05-09 14:46 11.60901 -80.64927 28092 ft 449 kts 132°
2026-05-09 14:47 11.58737 -80.62620 28413 ft 450 kts 132°
2026-05-09 14:47 11.56564 -80.60302 28675 ft 452 kts 132°
2026-05-09 14:47 11.54382 -80.57973 28893 ft 455 kts 132°
2026-05-09 14:47 11.52187 -80.55622 29119 ft 458 kts 132°
2026-05-09 14:48 11.49985 -80.53263 29337 ft 461 kts 132°
2026-05-09 14:48 11.47766 -80.50886 29646 ft 462 kts 132°
2026-05-09 14:48 11.45544 -80.48512 29964 ft 462 kts 132°
2026-05-09 14:48 11.43354 -80.46179 30247 ft 462 kts 132°
2026-05-09 14:49 11.41132 -80.43812 30525 ft 462 kts 132°
2026-05-09 14:49 11.38896 -80.41429 30738 ft 464 kts 132°
2026-05-09 14:49 11.36660 -80.39050 30973 ft 465 kts 132°
2026-05-09 14:49 11.34422 -80.36667 31257 ft 464 kts 131°
2026-05-09 14:50 11.32180 -80.34280 31525 ft 465 kts 131°
2026-05-09 14:50 11.29968 -80.31926 31770 ft 466 kts 131°
2026-05-09 14:50 11.27719 -80.29530 32005 ft 467 kts 132°
2026-05-09 14:50 11.25463 -80.27133 32249 ft 469 kts 132°
2026-05-09 14:51 11.23217 -80.24741 32515 ft 470 kts 132°
2026-05-09 14:51 11.20954 -80.22329 32796 ft 470 kts 131°
2026-05-09 14:51 11.18682 -80.19906 33035 ft 472 kts 132°
2026-05-09 14:51 11.16410 -80.17490 33284 ft 473 kts 131°
2026-05-09 14:52 11.14128 -80.15072 33547 ft 473 kts 133°
2026-05-09 14:52 11.11839 -80.12652 33857 ft 474 kts 133°
2026-05-09 14:52 11.09544 -80.10222 34054 ft 476 kts 133°
2026-05-09 14:52 11.07251 -80.07787 34335 ft 475 kts 133°
2026-05-09 14:53 11.04971 -80.05362 34659 ft 474 kts 133°
2026-05-09 14:53 11.02695 -80.02941 34960 ft 472 kts 133°
2026-05-09 14:53 11.00456 -80.00556 35255 ft 471 kts 133°
2026-05-09 14:53 10.98186 -79.98138 35520 ft 471 kts 133°
2026-05-09 14:54 10.95919 -79.95725 35757 ft 470 kts 133°
2026-05-09 14:54 10.93649 -79.93314 35925 ft 472 kts 132°
2026-05-09 14:54 10.91366 -79.90898 36068 ft 473 kts 133°
2026-05-09 14:54 10.89082 -79.88478 36307 ft 473 kts 132°
2026-05-09 14:55 10.86829 -79.86087 36445 ft 475 kts 132°
2026-05-09 14:55 10.84541 -79.83657 36690 ft 475 kts 132°
2026-05-09 14:55 10.82244 -79.81222 36872 ft 473 kts 133°
2026-05-09 14:55 10.79956 -79.78802 36928 ft 473 kts 133°
2026-05-09 14:56 10.75413 -79.73992 36924 ft 473 kts 133°
2026-05-09 14:56 10.70822 -79.69122 36921 ft 478 kts 133°
2026-05-09 14:57 10.66239 -79.64274 36918 ft 478 kts 133°
2026-05-09 14:57 10.61613 -79.59388 36923 ft 478 kts 133°
2026-05-09 14:58 10.57025 -79.54533 36929 ft 477 kts 133°
2026-05-09 14:58 10.52418 -79.49662 36948 ft 475 kts 133°
2026-05-09 14:59 10.47837 -79.44870 36924 ft 474 kts 134°
2026-05-09 14:59 10.43195 -79.40068 36909 ft 475 kts 134°
2026-05-09 15:00 10.38602 -79.35311 36926 ft 474 kts 134°
2026-05-09 15:00 10.33970 -79.30502 36909 ft 474 kts 134°
2026-05-09 15:01 10.27070 -79.23338 36920 ft 473 kts 134°
2026-05-09 15:02 10.22486 -79.18570 36928 ft 473 kts 134°
2026-05-09 15:02 10.17871 -79.13781 36905 ft 475 kts 134°
2026-05-09 15:03 10.13229 -79.08972 36901 ft 476 kts 134°
2026-05-09 15:03 10.08594 -79.04178 36916 ft 475 kts 134°
2026-05-09 15:04 10.03980 -78.99415 36907 ft 475 kts 134°
2026-05-09 15:06 9.85428 -78.80208 36907 ft 477 kts 134°
2026-05-09 15:06 9.80806 -78.75431 36922 ft 476 kts 134°
2026-05-09 15:07 9.76175 -78.70645 36910 ft 474 kts 134°
2026-05-09 15:07 9.71546 -78.65855 36889 ft 475 kts 134°
2026-05-09 15:08 9.66927 -78.61087 36898 ft 475 kts 134°
2026-05-09 15:08 9.60014 -78.53953 36915 ft 472 kts 135°
2026-05-09 15:10 9.41591 -78.34978 36898 ft 472 kts 135°
2026-05-09 15:11 9.36974 -78.30227 36908 ft 472 kts 135°
2026-05-09 15:11 9.32388 -78.25510 36897 ft 472 kts 135°
2026-05-09 15:12 9.27773 -78.20746 36896 ft 473 kts 135°
2026-05-09 15:12 9.23241 -78.15963 36889 ft 473 kts 133°
2026-05-09 15:13 9.18765 -78.11056 36900 ft 473 kts 133°
2026-05-09 15:13 9.14308 -78.06143 36902 ft 473 kts 133°
2026-05-09 15:14 9.09822 -78.01244 36903 ft 473 kts 133°
2026-05-09 15:14 9.05363 -77.96415 36917 ft 472 kts 133°
2026-05-09 15:15 9.01623 -77.92357 36925 ft 470 kts 133°
2026-05-09 15:15 8.96418 -77.86707 36863 ft 468 kts 133°
2026-05-09 15:16 8.92003 -77.81909 36878 ft 469 kts 133°
2026-05-09 15:16 8.87534 -77.77064 36875 ft 470 kts 133°
2026-05-09 15:17 8.83059 -77.72222 36879 ft 471 kts 133°
2026-05-09 15:17 8.78614 -77.67406 36890 ft 470 kts 133°
2026-05-09 15:18 8.74151 -77.62554 36898 ft 469 kts 133°
2026-05-09 15:18 8.69716 -77.57747 36896 ft 470 kts 133°
2026-05-09 15:19 8.65265 -77.52934 36904 ft 469 kts 133°
2026-05-09 15:19 8.60804 -77.48114 36911 ft 469 kts 133°
2026-05-09 15:20 8.54106 -77.40882 36904 ft 469 kts 134°
2026-05-09 15:21 8.49428 -77.36256 36905 ft 470 kts 136°
2026-05-09 15:21 8.44623 -77.31809 36916 ft 469 kts 137°
2026-05-09 15:22 8.39805 -77.27326 36923 ft 470 kts 136°
2026-05-09 15:22 8.35076 -77.22830 36924 ft 469 kts 136°
2026-05-09 15:23 8.30329 -77.18276 36910 ft 469 kts 136°
2026-05-09 15:23 8.25587 -77.13742 36887 ft 469 kts 136°
2026-05-09 15:24 8.20829 -77.09224 36890 ft 471 kts 135°
2026-05-09 15:24 8.16079 -77.04708 36883 ft 471 kts 136°
2026-05-09 15:25 8.11310 -77.00175 36884 ft 471 kts 136°
2026-05-09 15:25 8.06541 -76.95631 36894 ft 471 kts 136°
2026-05-09 15:26 7.99424 -76.88855 36898 ft 470 kts 136°
2026-05-09 15:26 7.95456 -76.85088 36872 ft 470 kts 136°
2026-05-09 15:27 7.89873 -76.79802 36863 ft 471 kts 136°
2026-05-09 15:27 7.85122 -76.75291 36865 ft 470 kts 136°
2026-05-09 15:28 7.81064 -76.71633 36864 ft 468 kts 143°
2026-05-09 15:28 7.74884 -76.67223 36847 ft 468 kts 145°
2026-05-09 15:29 7.70456 -76.64074 36901 ft 467 kts 145°
2026-05-09 15:29 7.65138 -76.60287 36906 ft 466 kts 145°
2026-05-09 15:30 7.59841 -76.56516 36900 ft 466 kts 144°
2026-05-09 15:30 7.54565 -76.52767 36893 ft 466 kts 145°
2026-05-09 15:31 7.49265 -76.48997 36910 ft 466 kts 144°
2026-05-09 15:31 7.43968 -76.45221 36916 ft 465 kts 144°
2026-05-09 15:32 7.38687 -76.41464 36925 ft 465 kts 145°
2026-05-09 15:32 7.33391 -76.37703 36926 ft 465 kts 144°
2026-05-09 15:33 7.28101 -76.33939 36955 ft 465 kts 144°
2026-05-09 15:33 7.22858 -76.30211 36955 ft 464 kts 144°
2026-05-09 15:34 7.17576 -76.26464 36955 ft 464 kts 144°
2026-05-09 15:34 7.12285 -76.22706 36952 ft 463 kts 144°
2026-05-09 15:35 7.07009 -76.18958 36974 ft 464 kts 144°
2026-05-09 15:35 7.01728 -76.15204 36692 ft 463 kts 144°
2026-05-09 15:36 6.99127 -76.13357 36450 ft 463 kts 144°
2026-05-09 15:36 6.96496 -76.11492 36203 ft 462 kts 144°
2026-05-09 15:36 6.93866 -76.09626 35959 ft 462 kts 144°
2026-05-09 15:36 6.91224 -76.07751 35723 ft 462 kts 144°
2026-05-09 15:37 6.88591 -76.05886 35494 ft 463 kts 144°
2026-05-09 15:37 6.85954 -76.04017 35265 ft 462 kts 143°
2026-05-09 15:37 6.83358 -76.02173 35032 ft 462 kts 143°
2026-05-09 15:37 6.80727 -76.00304 34803 ft 462 kts 143°
2026-05-09 15:38 6.78091 -75.98432 34567 ft 462 kts 144°
2026-05-09 15:38 6.75468 -75.96558 34340 ft 462 kts 141°
2026-05-09 15:38 6.73045 -75.94439 34041 ft 461 kts 134°
2026-05-09 15:38 6.70907 -75.92006 32969 ft 467 kts 129°
2026-05-09 15:39 6.68843 -75.89504 31917 ft 473 kts 129°
2026-05-09 15:39 6.66735 -75.86930 30867 ft 479 kts 129°
2026-05-09 15:39 6.64609 -75.84322 29686 ft 485 kts 129°
2026-05-09 15:39 6.62459 -75.81692 28868 ft 483 kts 129°
2026-05-09 15:40 6.60330 -75.79100 28163 ft 477 kts 130°
2026-05-09 15:40 6.58223 -75.76543 27417 ft 472 kts 130°
2026-05-09 15:40 6.56163 -75.74041 26700 ft 467 kts 130°
2026-05-09 15:40 6.54094 -75.71533 25980 ft 464 kts 131°
2026-05-09 15:41 6.52032 -75.69037 25268 ft 461 kts 131°
2026-05-09 15:41 6.49990 -75.66564 24557 ft 458 kts 131°
2026-05-09 15:41 6.47956 -75.64104 23858 ft 456 kts 131°
2026-05-09 15:41 6.45935 -75.61658 23132 ft 453 kts 131°
2026-05-09 15:42 6.43930 -75.59231 22470 ft 448 kts 131°
2026-05-09 15:42 6.41780 -75.57072 21872 ft 440 kts 142°
2026-05-09 15:42 6.39216 -75.55438 21293 ft 432 kts 156°
2026-05-09 15:42 6.36416 -75.54419 20736 ft 424 kts 168°
2026-05-09 15:43 6.33522 -75.54027 20196 ft 416 kts 179°
2026-05-09 15:43 6.30652 -75.53975 19814 ft 410 kts 179°
2026-05-09 15:43 6.27808 -75.53925 19300 ft 407 kts 180°
2026-05-09 15:43 6.24988 -75.53876 18800 ft 402 kts 180°
2026-05-09 15:44 6.22175 -75.53826 17948 ft 407 kts 179°
2026-05-09 15:44 6.19388 -75.53769 17458 ft 401 kts 179°
2026-05-09 15:44 6.16646 -75.53702 17330 ft 387 kts 179°
2026-05-09 15:44 6.14002 -75.53657 17212 ft 373 kts 179°
2026-05-09 15:45 6.11452 -75.53643 17090 ft 360 kts 180°
2026-05-09 15:45 6.08991 -75.53652 17095 ft 348 kts 180°
2026-05-09 15:45 6.06602 -75.53675 16949 ft 337 kts 181°
2026-05-09 15:45 6.04279 -75.53704 16663 ft 330 kts 181°
2026-05-09 15:46 6.02008 -75.53734 16109 ft 324 kts 180°
2026-05-09 15:46 5.99785 -75.53761 15621 ft 321 kts 180°
2026-05-09 15:46 5.97569 -75.53782 15178 ft 317 kts 180°
2026-05-09 15:46 5.95369 -75.53800 14679 ft 314 kts 179°
2026-05-09 15:47 5.93207 -75.53815 14402 ft 303 kts 180°
2026-05-09 15:47 5.91159 -75.53832 14260 ft 286 kts 179°
2026-05-09 15:47 5.89306 -75.53464 14071 ft 269 kts 152°
2026-05-09 15:47 5.87951 -75.52217 13703 ft 264 kts 120°
2026-05-09 15:48 5.87479 -75.50453 13233 ft 265 kts 92°
2026-05-09 15:48 5.87482 -75.48618 12740 ft 265 kts 91°
2026-05-09 15:48 5.87502 -75.46782 12149 ft 260 kts 91°
2026-05-09 15:48 5.87528 -75.44989 11840 ft 248 kts 90°
2026-05-09 15:49 5.87943 -75.43366 11708 ft 238 kts 58°
2026-05-09 15:49 5.89201 -75.42319 11571 ft 239 kts 22°
2026-05-09 15:49 5.90840 -75.42088 11371 ft 243 kts
2026-05-09 15:49 5.92524 -75.42132 11087 ft 240 kts 360°
2026-05-09 15:50 5.94185 -75.42166 10796 ft 236 kts
2026-05-09 15:50 5.95825 -75.42181 10531 ft 233 kts
2026-05-09 15:50 5.97436 -75.42191 10265 ft 230 kts
2026-05-09 15:50 5.98986 -75.42200 9995 ft 219 kts
2026-05-09 15:51 6.00470 -75.42211 9744 ft 206 kts
2026-05-09 15:51 6.01873 -75.42220 9495 ft 199 kts
2026-05-09 15:51 6.03229 -75.42228 9247 ft 189 kts
2026-05-09 15:51 6.04503 -75.42236 9030 ft 177 kts
2026-05-09 15:52 6.06940 -75.42251 8597 ft 174 kts
2026-05-09 15:52 6.08139 -75.42259 8401 ft 172 kts
2026-05-09 15:52 6.09331 -75.42260 8170 ft 169 kts
2026-05-09 15:53 6.10494 -75.42269 7918 ft 167 kts
2026-05-09 15:53 6.11666 -75.42282 7707 ft 166 kts
2026-05-09 15:53 6.12825 -75.42284 7443 ft 168 kts
2026-05-09 15:53 6.13985 -75.42296 7211 ft 167 kts
2026-05-09 15:54 6.15147 -75.42304 6994 ft 165 kts
2026-05-09 15:54 6.16174 -75.42311 6983 ft 126 kts 360°
2026-05-09 15:54 6.16875 -75.42314 7017 ft 81 kts 359°
2026-05-09 15:54 6.17352 -75.42318 7022 ft 54 kts 359°
2026-05-09 15:55 6.17550 -75.42325 7023 ft 11 kts 336°
2026-05-09 15:55 6.17573 -75.42392 7020 ft 9 kts 268°
2026-05-09 15:55 6.17572 -75.42439 7019 ft 4 kts 269°
2026-05-09 15:55 6.17572 -75.42450 7020 ft 3 kts 269°
2026-05-09 15:56 6.17571 -75.42471 7019 ft 3 kts 264°
2026-05-09 15:56 6.17553 -75.42489 7021 ft 5 kts 202°
2026-05-09 15:56 6.17512 -75.42491 7019 ft 7 kts 179°
2026-05-09 15:56 6.17453 -75.42489 7018 ft 10 kts 179°
2026-05-09 15:57 6.17378 -75.42489 7022 ft 12 kts 179°
2026-05-09 15:57 6.17291 -75.42488 7017 ft 13 kts 179°
2026-05-09 15:57 6.17211 -75.42488 7018 ft 9 kts 191°
2026-05-09 15:57 6.17191 -75.42544 7019 ft 9 kts 268°
2026-05-09 15:58 6.17182 -75.42601 7020 ft 9 kts 241°
2026-05-09 15:58 6.17135 -75.42616 7018 ft 6 kts 179°
2026-05-09 15:58 6.17087 -75.42618 7016 ft 9 kts 193°
2026-05-09 15:58 6.17038 -75.42650 7020 ft 7 kts 216°
2026-05-09 15:59 6.17002 -75.42678 7018 ft 5 kts 218°
2026-05-09 15:59 6.16984 -75.42697 7016 ft 3 kts 241°
2026-05-09 15:59 6.16984 -75.42709 7019 ft 2 kts 280°
2026-05-09 15:59 6.17000 -75.42728 7016 ft 3 kts 315°
2026-05-09 16:00 6.17009 -75.42736 7016 ft 0 kts 316°